Total_Precipitation_Accumulation
1.70 1.77 1.83 1.91 2.07 2.27 2.47 2.57 2.47 2.50 2.53 2.47 2.30 2.22 2.17 2.11 2.12 2.18 2.16 2.20 2.23 2.23 2.21 2.15 2.00 1.89 1.96 2.00 2.03 2.09 2.16 2.30 2.24 1.66 1.42 1.39 1.44 1.41 1.42 1.32 1.23 1.21 1.16
1.73 1.74 1.79 1.82 1.87 2.00 2.11 2.32 2.39 2.46 2.45 2.48 2.39 2.24 2.14 2.04 2.00 2.01 1.97 1.94 1.95 1.96 1.97 2.00 1.94 1.82 1.81 1.85 1.92 1.89 1.83 1.84 1.94 1.76 1.42 1.34 1.31 1.24 1.25 1.27 1.21 1.15 1.09
1.72 1.78 1.76 1.73 1.72 1.77 1.89 2.05 2.14 2.23 2.27 2.30 2.40 2.31 2.14 2.03 1.94 1.89 1.84 1.81 1.78 1.73 1.74 1.81 1.84 1.86 1.83 1.80 1.80 1.78 1.73 1.71 1.78 1.82 1.53 1.33 1.29 1.22 1.22 1.21 1.17 1.14 1.07
1.66 1.77 1.80 1.76 1.71 1.67 1.77 1.89 1.98 2.04 2.12 2.11 2.17 2.28 2.29 2.19 2.06 1.95 1.88 1.83 1.79 1.72 1.68 1.73 1.74 1.73 1.67 1.63 1.67 1.63 1.65 1.73 1.74 1.82 1.73 1.55 1.43 1.32 1.33 1.34 1.31 1.18 1.11
1.56 1.73 1.78 1.82 1.88 1.89 1.84 1.85 1.89 1.92 2.00 2.03 2.03 2.13 2.19 2.24 2.20 2.09 1.99 1.93 1.90 1.87 1.78 1.74 1.73 1.78 1.69 1.62 1.62 1.63 1.66 1.78 1.85 1.90 1.80 1.61 1.49 1.45 1.38 1.25 1.29 1.27 1.21
1.40 1.54 1.63 1.73 1.85 2.01 2.03 1.99 1.97 1.93 1.94 2.00 2.01 2.05 2.09 2.12 2.36 2.35 2.15 2.06 1.99 1.87 1.76 1.64 1.64 1.75 1.73 1.72 1.68 1.66 1.73 1.88 1.97 1.98 1.85 1.62 1.34 1.27 1.33 1.46 1.57 1.71 1.66
1.27 1.32 1.44 1.61 1.70 1.82 2.03 2.13 2.09 2.05 2.07 2.09 2.12 2.15 2.14 2.23 2.35 2.18 2.13 1.97 1.93 1.82 1.67 1.56 1.51 1.50 1.60 1.49 1.54 1.61 1.61 1.70 1.78 1.78 1.72 1.40 1.23 1.19 1.46 1.71 1.74 1.76 1.57
1.24 1.31 1.44 1.53 1.61 1.75 1.94 2.11 2.20 2.20 2.26 2.26 2.23 2.22 2.19 2.21 2.25 2.11 2.08 1.88 1.79 1.67 1.56 1.44 1.40 1.38 1.42 1.52 1.60 1.68 1.55 1.44 1.39 1.32 1.29 1.22 1.20 1.30 1.60 1.92 2.08 2.14 1.86
1.18 1.26 1.35 1.48 1.57 1.67 1.84 2.01 2.12 2.19 2.26 2.29 2.19 2.10 2.01 2.00 2.05 1.92 1.92 1.82 1.81 1.68 1.55 1.47 1.41 1.33 1.47 1.70 1.79 1.80 1.60 1.38 1.34 1.38 1.42 1.43 1.51 1.61 1.74 2.10 2.39 2.55 2.28
1.19 1.23 1.25 1.36 1.49 1.58 1.69 1.85 1.99 2.08 2.10 2.07 2.00 1.91 1.82 1.78 1.89 1.79 1.80 1.80 1.81 1.68 1.57 1.52 1.59 1.50 1.61 1.75 1.73 1.77 1.66 1.38 1.27 1.27 1.30 1.33 1.26 1.30 1.54 1.72 2.19 2.70 2.40
1.20 1.23 1.24 1.29 1.41 1.51 1.53 1.59 1.71 1.80 1.80 1.78 1.70 1.69 1.68 1.68 1.74 1.67 1.66 1.68 1.74 1.72 1.65 1.54 1.51 1.72 1.80 1.83 1.73 1.54 1.53 1.57 1.47 1.38 1.34 1.32 1.31 1.29 1.29 1.31 1.61 2.39 2.77
1.20 1.23 1.28 1.33 1.36 1.41 1.41 1.42 1.44 1.49 1.57 1.60 1.53 1.50 1.56 1.61 1.65 1.68 1.70 1.73 1.76 1.70 1.60 1.43 1.46 1.74 1.77 1.74 1.62 1.62 1.73 1.68 1.51 1.55 1.53 1.47 1.40 1.36 1.34 1.35 1.39 1.58 1.93
1.23 1.25 1.28 1.30 1.34 1.38 1.40 1.37 1.39 1.43 1.48 1.56 1.47 1.42 1.42 1.41 1.50 1.68 1.69 1.75 1.77 1.64 1.56 1.61 1.65 1.69 1.65 1.61 1.67 1.68 1.63 1.53 1.60 1.72 1.62 1.46 1.35 1.35 1.40 1.47 1.50 1.50 1.59
1.21 1.23 1.26 1.24 1.28 1.34 1.38 1.39 1.43 1.50 1.48 1.47 1.41 1.36 1.32 1.29 1.27 1.38 1.56 1.63 1.69 1.66 1.67 1.71 1.67 1.62 1.61 1.62 1.71 1.68 1.55 1.55 1.71 1.75 1.61 1.48 1.46 1.52 1.55 1.60 1.77 1.81 1.93
1.13 1.16 1.18 1.21 1.27 1.36 1.41 1.48 1.54 1.56 1.60 1.61 1.48 1.36 1.35 1.36 1.34 1.48 1.58 1.59 1.67 1.75 1.78 1.70 1.62 1.58 1.60 1.57 1.52 1.52 1.54 1.65 1.74 1.65 1.67 1.68 1.68 1.76 1.81 1.85 2.02 2.13 2.17
1.09 1.10 1.15 1.18 1.26 1.33 1.38 1.48 1.60 1.61 1.60 1.59 1.58 1.48 1.40 1.42 1.49 1.54 1.57 1.66 1.79 1.87 1.85 1.76 1.62 1.51 1.49 1.48 1.47 1.46 1.49 1.56 1.67 1.79 1.84 1.85 1.89 1.97 2.05 2.07 2.21 2.35 2.23
1.08 1.12 1.16 1.18 1.24 1.30 1.29 1.31 1.43 1.48 1.45 1.47 1.52 1.50 1.47 1.47 1.47 1.51 1.60 1.66 1.66 1.69 1.66 1.58 1.50 1.45 1.42 1.40 1.43 1.47 1.50 1.50 1.65 1.90 2.03 2.08 2.14 2.19 2.25 2.31 2.32 2.32 2.14
0.99 1.08 1.09 1.14 1.21 1.25 1.28 1.28 1.25 1.27 1.32 1.37 1.41 1.43 1.43 1.44 1.43 1.47 1.57 1.62 1.61 1.55 1.45 1.42 1.40 1.38 1.41 1.44 1.48 1.57 1.62 1.64 1.76 1.93 2.04 2.11 2.23 2.38 2.44 2.34 2.23 2.17 2.08
0.88 0.96 1.00 1.04 1.11 1.19 1.22 1.26 1.25 1.22 1.22 1.22 1.23 1.32 1.40 1.42 1.42 1.47 1.51 1.48 1.50 1.46 1.38 1.36 1.35 1.39 1.46 1.52 1.56 1.63 1.75 1.86 1.94 2.12 2.18 2.18 2.26 2.48 2.48 2.25 2.10 2.02 1.97
0.84 0.92 0.95 0.97 1.01 1.07 1.11 1.16 1.20 1.18 1.15 1.13 1.16 1.24 1.30 1.35 1.36 1.37 1.41 1.44 1.47 1.47 1.43 1.43 1.41 1.43 1.52 1.60 1.65 1.75 1.88 1.93 2.02 2.14 2.19 2.21 2.26 2.39 2.36 2.11 1.94 1.94 1.84
0.79 0.84 0.89 0.89 0.93 1.00 1.06 1.12 1.17 1.17 1.14 1.10 1.14 1.26 1.44 1.46 1.39 1.32 1.36 1.40 1.45 1.49 1.52 1.55 1.55 1.56 1.60 1.68 1.76 1.82 1.92 1.97 2.04 2.19 2.22 2.17 2.16 2.14 1.96 1.89 1.84 1.84 1.86
0.73 0.76 0.79 0.83 0.88 0.95 1.04 1.08 1.11 1.13 1.11 1.08 1.09 1.19 1.31 1.25 1.20 1.21 1.28 1.30 1.31 1.36 1.45 1.57 1.61 1.60 1.74 1.95 2.13 2.22 2.12 2.02 2.03 2.19 2.24 2.09 2.01 1.94 1.89 1.93 1.89 1.88 1.90
0.67 0.70 0.72 0.77 0.82 0.92 0.97 0.97 1.00 1.05 1.07 1.07 1.06 1.08 1.12 1.14 1.12 1.14 1.17 1.19 1.20 1.22 1.27 1.39 1.51 1.51 1.55 1.82 2.14 2.53 2.67 2.40 2.24 2.35 2.46 2.28 2.04 1.96 2.00 2.04 1.94 1.91 1.86
0.62 0.66 0.69 0.73 0.77 0.82 0.87 0.91 0.95 1.00 1.03 1.02 1.00 1.00 1.04 1.08 1.09 1.08 1.09 1.11 1.13 1.13 1.16 1.28 1.40 1.43 1.46 1.70 1.96 2.16 2.35 2.52 2.73 2.75 2.67 2.66 2.36 2.09 2.06 2.05 1.90 1.81 1.80
0.62 0.65 0.67 0.71 0.75 0.78 0.81 0.85 0.88 0.92 0.96 0.97 0.97 0.97 0.97 0.99 1.01 1.02 1.04 1.06 1.07 1.06 1.03 1.11 1.28 1.41 1.48 1.61 1.81 1.98 2.13 2.31 2.50 2.61 2.61 2.55 2.33 2.08 2.03 2.02 1.90 1.80 1.78
0.60 0.62 0.64 0.67 0.70 0.73 0.76 0.80 0.83 0.85 0.91 0.94 0.95 0.95 0.96 0.96 0.98 1.01 1.03 1.05 1.06 1.02 0.98 1.00 1.09 1.24 1.38 1.52 1.63 1.80 1.96 1.95 1.84 1.85 2.15 2.35 2.23 2.00 1.97 2.05 1.94 1.88 1.85